{"data":{"norad_id":65849,"intl_designator":"2025-221AC","name":"STARLINK-35231","alt_names":[],"object_type":"PAYLOAD","status":"ACTIVE","operator":null,"country":"US","launch_date":"2025-09-29","launch_site_code":"AFWTR","launch_vehicle":null,"mission":null,"orbit_class":"UNKNOWN","rcs_meters":null,"size_class":null,"mass_kg":null,"dimensions":null,"purposes":["comms"],"wikipedia_slug":null,"has_3d_model":false,"image_url":null,"decayed_at":null,"tle_current":{"epoch":"2026-09-20T11:18:37.680480Z","epoch_age_seconds":108596,"freshness":"FRESH","line1":"1 65849U 25221AC  26263.47126945  .00019779  00000+0  59495-3 0  9998","line2":"2 65849  53.1631 261.5979 0000926  48.3651 311.7431 15.34400885 55936","mean_motion":15.34400885,"eccentricity":9.26e-5,"inclination_deg":53.1631,"raan_deg":261.5979,"arg_perigee_deg":48.3651,"mean_anomaly_deg":311.7431,"bstar":0.00059495,"rev_number":5593,"period_min":93.847703952543,"perigee_km":462.0671482392,"apogee_km":463.33407136453,"semimajor_km":6840.8376098019,"source":"CELESTRAK","updated_at":"2026-09-21T09:00:35.724456Z"}}}